Location: ???????????
(55.5758°N, 38.4970°E)
Time: 18:24:16
(UTC+00:00)

Orbus 7S? - Pass Details

Date: 15 November 2025
Orbit: 354 x 6170 km, 56.9° (Epoch: 30 September)

Event Time Altitude Azimuth Distance (km) Brightness Sun altitude
Exits shadow 03:51:03 - 255° (WSW) 2,300 6.0 -9.7°
Reaches altitude 10° 03:51:43 10° 255° (WSW) 1,987 5.7 -9.6°
Maximum altitude 03:55:38 86° 343° (NNW) 427 2.7 -9.1°
Drops below altitude 10° 03:58:16 10° 74° (ENE) 1,349 6.2 -8.7°
Sets 04:00:01 0° 75° (ENE) 2,188 7.4 -8.5°
